This demonstration page uses our WeatherBlox Daily Observations layout. Learn more.

Left ArrowRight Arrow

44.8408, -93.29828

Hourly Observations for November 22, 2016

Temp ( °F °C ) Dew Point ( °F °C ) Humidity (%) Winds ( mph kmh ) Pressure ( in mb ) Visibility ( mi km ) Precip ( " mm )
12:53 am 00:53 Cloudy 34 1.1 19 -7.2 54 54 SE 13 20 30.20 1023 10 16 0.00 0.00
1:53 am 01:53 Cloudy 34 1.1 19 -7.2 54 54 SE 15 24 30.17 1022 10 16 0.00 0.00
2:53 am 02:53 Cloudy 34 1.1 19 -7.2 54 54 SE 9 15 30.17 1022 10 16 0.00 0.00
3:53 am 03:53 Cloudy 34 1.1 19 -7.2 54 54 SE 18 30 30.17 1022 10 16 0.00 0.00
4:53 am 04:53 Cloudy 34 1.1 19 -7.2 54 54 SE 15 24 30.17 1022 10 16 0.00 0.00
5:53 am 05:53 Cloudy 35 1.7 19 -7.2 52 52 SE 14 22 30.16 1021 10 16 0.00 0.00
6:53 am 06:53 Cloudy 34 1.1 22 -5.6 61 61 SE 16 26 30.16 1022 10 16 0.00 0.03
7:20 am 07:20 Cloudy 34 1 21 -6 60 60 SE 14 22 30.18 1022 10 16 0.00 0.00
7:45 am 07:45 Cloudy 34 1.1 23 -5 64 64 SE 17 28 30.18 1022 10 16 0.00 0.03
7:53 am 07:53 Cloudy 34 1.1 22 -5.6 61 61 SE 21 33 30.17 1022 10 16 0.00 0.03
8:06 am 08:06 Cloudy with Light Rain 34 1 23 -5 65 65 SE 18 30 30.18 1022 10 16 0.00 0.00
8:32 am 08:32 Cloudy 34 1 25 -4 70 70 ESE 18 30 30.18 1022 10 16 0.00 0.00
8:53 am 08:53 Cloudy with Light Rain 34 1.1 24 -4.4 67 67 SE 20 31 30.16 1021 10 16 0.00 0.03
9:17 am 09:17 Cloudy 34 1.1 24 -4.4 67 67 ESE 15 24 30.15 1021 10 16 0.00 0.03
9:45 am 09:45 Cloudy with Light Rain 34 1.1 25 -3.9 70 70 ESE 15 24 30.15 1021 10 16 0.00 0.03
9:53 am 09:53 Cloudy with Light Rain 34 1.1 25 -3.9 70 70 ESE 16 26 30.15 1021 10 16 0.00 0.03
10:53 am 10:53 Cloudy 34 1.1 25 -3.9 70 70 SE 10 17 30.17 1022 10 16 0.00 0.03
11:53 am 11:53 Cloudy with Light Snow 35 1.7 25 -3.9 67 67 SE 10 17 30.15 1021 7 11 0.00 0.03
12:53 pm 12:53 Cloudy with Light Snow 35 1.7 26 -3.3 70 70 ESE 15 24 30.12 1020 5 8 0.01 0.25
1:40 pm 13:40 Cloudy 34 1 28 -2 81 81 ESE 18 30 30.12 1020 7 11 0.00 0.00
1:53 pm 13:53 Cloudy 34 1.1 28 -2.2 79 79 ESE 14 22 30.10 1019 8 13 0.01 0.25
2:35 pm 14:35 Cloudy 34 1.1 28 -2.2 79 79 E 12 19 30.09 1019 4 6 0.03 0.76
2:53 pm 14:53 Cloudy 33 0.6 28 -2.2 82 82 ESE 17 28 30.11 1020 5 8 0.05 1.27
3:19 pm 15:19 Cloudy with Light Freezing Rain 33 0.6 29 -1.7 85 85 E 13 20 30.12 1020 5 8 0.02 0.51
3:53 pm 15:53 Cloudy with Light Freezing Rain 33 0.6 28 -2.2 82 82 ESE 16 26 30.11 1020 5 8 0.05 1.27
4:53 pm 16:53 Cloudy with Light Rain 34 1.1 28 -2.2 79 79 E 14 22 30.10 1019 6 10 0.06 1.52
5:15 pm 17:15 Cloudy with Light Rain 34 1.1 28 -2.2 79 79 ESE 12 19 30.12 1020 7 11 0.02 0.51
5:37 pm 17:37 Cloudy 34 1.1 28 -2.2 79 79 ESE 12 19 30.12 1020 6 10 0.05 1.27
5:53 pm 17:53 Cloudy 34 1.1 28 -2.2 79 79 E 10 17 30.11 1020 6 10 0.08 2.03
6:46 pm 18:46 Cloudy with Mist and Fog 34 1 28 -2 81 81 ESE 14 22 30.12 1020 5 8 0.00 0.00
6:53 pm 18:53 Cloudy with Mist and Fog 33 0.6 29 -1.7 85 85 ESE 13 20 30.11 1020 5 8 0.08 2.03
6:59 pm 18:59 Cloudy with Mist and Fog 33 0.6 29 -1.7 85 85 ESE 12 19 30.12 1020 5 8 0.01 0.25
7:08 pm 19:08 Cloudy with Mist and Fog 34 1 28 -2 81 81 ESE 10 17 30.12 1020 5 8 0.00 0.00
7:16 pm 19:16 Cloudy with Mist and Fog 34 1 30 -1 87 87 ESE 14 22 30.12 1020 6 10 0.00 0.00
7:36 pm 19:36 Cloudy with Mist and Fog 34 1 28 -2 81 81 ESE 16 26 30.12 1020 5 8 0.00 0.00
7:53 pm 19:53 Cloudy 34 1.1 30 -1.1 85 85 E 20 31 30.09 1019 7 11 0.08 2.03
8:25 pm 20:25 Cloudy 34 1.1 30 -1.1 85 85 E 14 22 30.09 1019 8 13 0.02 0.51
8:53 pm 20:53 Cloudy with Light Wintry Mix 34 1.1 30 -1.1 85 85 ESE 14 22 30.09 1019 5 8 0.04 1.02
8:56 pm 20:56 Cloudy with Light Snow 34 1 30 -1 87 87 ESE 15 24 30.09 1019 4 6 0.00 0.00
9:18 pm 21:18 Cloudy with Light Snow 34 1 30 -1 87 87 ESE 14 22 30.09 1019 3 4 0.00 0.00
9:28 pm 21:28 Cloudy with Light Snow 34 1.1 30 -1.1 85 85 ESE 12 19 30.09 1019 2 3 0.02 0.51
9:40 pm 21:40 Cloudy with Light Snow 34 1 30 -1 87 87 E 12 19 30.09 1019 1 2 0.00 0.00
9:53 pm 21:53 Cloudy with Light Snow 33 0.6 31 -0.6 92 92 E 9 15 30.09 1019 1 2 0.05 1.27
10:00 pm 22:00 Cloudy with Light Snow 33 0.6 31 -0.6 92 92 E 8 13 30.09 1019 1 1 0.02 0.51
10:53 pm 22:53 Cloudy with Light Snow 33 0.6 31 -0.6 92 92 E 8 13 30.09 1019 1 1 0.14 3.56
11:09 pm 23:09 Cloudy with Light Snow 33 0.6 31 -0.6 92 92 E 8 13 30.09 1019 1 2 0.03 0.76
11:33 pm 23:33 Cloudy with Light Snow 33 0.6 31 -0.6 92 92 E 7 11 30.09 1019 1 2 0.06 1.52
11:43 pm 23:43 Cloudy with Light Snow 33 0.6 31 -0.6 92 92 E 8 13 30.09 1019 1 1 0.08 2.03
11:53 pm 23:53 Cloudy with Light Snow 33 0.6 31 -0.6 92 92 E 7 11 30.08 1019 1 2 0.09 2.29

Powered by AerisWeather